Weather History for Olive Branch, MS

Change the Weather History Date:

Wednesday, February 13, 2013

  Actual Average (KMEM) Record (KMEM)
Temperature  
Mean Temperature 38 °F 45 °F  
Max Temperature 42 °F 54 °F 81 °F (1962)
Min Temperature 33 °F 36 °F -6 °F (1899)
Degree Days  
Heating Degree Days 28 20  
Month to date heating degree days 279  
Since 1 July heating degree days 2181  
Cooling Degree Days 0 0  
Month to date cooling degree days 0  
Year to date cooling degree days 1  
Moisture  
Dew Point 38 °F    
Average Humidity 100    
Maximum Humidity 100    
Minimum Humidity 87    
Precipitation  
Precipitation 0.04 in 0.15 in 2.04 in (1950)
Month to date precipitation 1.98  
Year to date precipitation 5.96  
Snow  
Snow 0.00 in 0.00 in 2.20 in (1905)
Month to date snowfall 0.7  
Since 1 July snowfall 2.8  
Snow Depth -    
Sea Level Pressure  
Sea Level Pressure 29.91 in    
Wind  
Wind Speed 5 mph (WNW)    
Max Wind Speed 13 mph    
Max Gust Speed 20 mph    
Visibility 5 miles    
Events Rain    
T = Trace of Precipitation, MM = Missing Value Source: NWS Daily Summary

Daily Weather History Graph

Daily Weather History Graph

Search for Another Location

Airport:

Trip Planner

Search our weather history database for the weather conditions in past years. The results will help you decide how hot, cold, wet, or windy it might be!

Date:

Astronomy

Feb. 13, 2013 Rise Set
Actual Time 6:46 AM CST 5:40 PM CST
Civil Twilight 6:20 AM CST 6:06 PM CST
Nautical Twilight 5:51 AM CST 6:35 PM CST
Astronomical Twilight 5:21 AM CST 7:05 PM CST
Moon 8:27 AM CST (2/13) 9:30 PM CST (2/13)
Length of Visible Light 11h 45m
Length of Day
10h 53m
Waxing Crescent, 14% of the Moon is Illuminated
Feb 13
Waxing Crescent
Feb 17
First Quarter
Feb 25
Full
Mar 4
Last Quarter
Mar 11
New

Hourly Weather History & Observations

Time (CST) Temp. Windchill Dew Point Humidity Pressure Visibility Wind Dir Wind Speed Gust Speed Precip Events Conditions
12:15 AM 41.0 °F - 41.0 °F 100% 29.81 in 2.5 mi Calm Calm - 0.00 in   Partly Cloudy
12:35 AM 41.0 °F - 41.0 °F 100% 29.81 in 1.5 mi Calm Calm - 0.00 in   Clear
12:55 AM 41.0 °F - 41.0 °F 100% 29.81 in 1.5 mi Calm Calm - 0.01 in   Unknown
1:15 AM 41.0 °F - 41.0 °F 100% 29.81 in 1.0 mi Calm Calm - N/A   Overcast
1:35 AM 41.0 °F 37.1 °F 41.0 °F 100% 29.80 in 1.2 mi North 5.8 mph - 0.01 in   Overcast
1:55 AM 41.0 °F 39.0 °F 41.0 °F 100% 29.79 in 1.2 mi North 3.5 mph - 0.01 in   Overcast
2:15 AM 41.0 °F 37.1 °F 41.0 °F 100% 29.79 in 1.5 mi North 5.8 mph - 0.00 in   Overcast
2:35 AM 41.0 °F 37.1 °F 41.0 °F 100% 29.79 in 1.8 mi NNW 5.8 mph - 0.00 in   Mostly Cloudy
2:55 AM 41.0 °F 37.1 °F 41.0 °F 100% 29.79 in 1.5 mi NNW 5.8 mph - 0.01 in   Overcast
3:15 AM 39.2 °F 32.5 °F 39.2 °F 100% 29.78 in 1.0 mi North 10.4 mph - 0.00 in   Overcast
3:35 AM 39.2 °F 33.0 °F 39.2 °F 100% 29.78 in 1.2 mi North 9.2 mph - 0.00 in   Overcast
3:55 AM 39.2 °F 32.0 °F 39.2 °F 100% 29.78 in 1.5 mi North 11.5 mph - 0.00 in   Overcast
4:15 AM 39.2 °F 31.6 °F 39.2 °F 100% 29.79 in 2.5 mi North 12.7 mph - 0.00 in   Overcast
4:35 AM 39.2 °F 32.5 °F 39.2 °F 100% 29.80 in 1.8 mi NNW 10.4 mph - 0.00 in   Overcast
4:55 AM 39.2 °F 32.0 °F 39.2 °F 100% 29.81 in 1.8 mi NNW 11.5 mph - 0.00 in   Overcast
5:15 AM 39.2 °F 33.6 °F 39.2 °F 100% 29.82 in 2.5 mi NNW 8.1 mph - 0.00 in   Overcast
5:35 AM 39.2 °F 31.6 °F 39.2 °F 100% 29.84 in 2.0 mi NNW 12.7 mph - 0.00 in   Overcast
5:55 AM 37.4 °F 29.3 °F 37.4 °F 100% 29.85 in 1.8 mi NNW 12.7 mph 19.6 mph 0.01 in   Overcast
6:50 AM 37.4 °F 30.8 °F 37.4 °F 100% 29.88 in 3.0 mi NNW 9.2 mph - N/A Rain Light Rain
7:50 AM 37.4 °F 30.8 °F 37.4 °F 100% 29.91 in 5.0 mi NNW 9.2 mph - N/A   Overcast
8:45 AM 37.4 °F 29.8 °F 37.4 °F 100% 29.95 in 7.0 mi NNW 11.5 mph - N/A   Overcast
9:50 AM 37.4 °F 32.8 °F 37.4 °F 100% 29.97 in 7.0 mi NNW 5.8 mph - N/A   Overcast
10:50 AM 39.2 °F 33.6 °F 39.2 °F 100% 30.00 in 8.0 mi NW 8.1 mph - N/A   Overcast
11:50 AM 39.2 °F 32.5 °F 39.2 °F 100% 30.01 in 7.0 mi NW 10.4 mph - N/A   Overcast
2:50 PM 39.2 °F 35.9 °F 39.2 °F 100% 29.98 in 8.0 mi WNW 4.6 mph - N/A   Overcast
3:50 PM 41.0 °F - 39.2 °F 93% 29.98 in 10.0 mi Calm Calm - N/A   Overcast
4:55 PM 42.8 °F 41.1 °F 39.2 °F 87% 29.98 in 10.0 mi WSW 3.5 mph - N/A   Overcast
5:50 PM 41.0 °F 38.0 °F 41.0 °F 100% 30.00 in 10.0 mi West 4.6 mph - N/A   Overcast
7:50 PM 37.4 °F 34.9 °F 37.4 °F 100% 30.02 in 10.0 mi West 3.5 mph - N/A   Scattered Clouds
8:15 PM 37.4 °F 32.8 °F 37.4 °F 100% 30.02 in 8.0 mi South 5.8 mph - 0.00 in   Clear
8:35 PM 35.6 °F 31.7 °F 35.6 °F 100% 30.01 in 10.0 mi South 4.6 mph - 0.00 in   Clear
8:55 PM 35.6 °F 30.7 °F 35.6 °F 100% 30.02 in 10.0 mi South 5.8 mph - 0.00 in   Clear
9:15 PM 33.8 °F 27.7 °F 33.8 °F 100% 30.02 in 10.0 mi South 6.9 mph - 0.00 in   Clear
9:35 PM 33.8 °F 27.7 °F 33.8 °F 100% 30.02 in 8.0 mi South 6.9 mph - 0.00 in   Clear
9:55 PM 33.8 °F 27.0 °F 33.8 °F 100% 30.03 in 7.0 mi South 8.1 mph - 0.00 in   Clear
10:15 PM 33.8 °F 27.7 °F 33.8 °F 100% 30.03 in 8.0 mi South 6.9 mph - 0.00 in   Clear
10:35 PM 33.8 °F 27.0 °F 33.8 °F 100% 30.03 in 8.0 mi South 8.1 mph - 0.00 in   Clear
10:55 PM 33.8 °F 27.0 °F 33.8 °F 100% 30.04 in 7.0 mi South 8.1 mph - 0.00 in   Clear
11:15 PM 33.8 °F 27.0 °F 33.8 °F 100% 30.04 in 9.0 mi South 8.1 mph - N/A   Clear
11:35 PM 33.8 °F 27.0 °F 33.8 °F 100% 30.04 in 8.0 mi South 8.1 mph - 0.00 in   Clear
11:55 PM 33.8 °F 27.0 °F 33.8 °F 100% 30.04 in 7.0 mi South 8.1 mph - 0.00 in   Clear